Jackson, MS

1:39 AM CST on December 11, 2016 (GMT -0600)
Hawkins

Weather History for KHKS - February, 2014

Change the Weather History Date:

Thursday, February 27, 2014

  Actual Average (KJAN) Record (KJAN)
Temperature  
Mean Temperature 38 °F -  
Max Temperature 51 °F 63 °F 86 °F (1918)
Min Temperature 24 °F 38 °F 21 °F (2002)
Degree Days  
Heating Degree Days 28    
Moisture  
Dew Point 18 °F    
Average Humidity 51    
Maximum Humidity 85    
Minimum Humidity 21    
Precipitation  
Precipitation 0.00 in - - ()
Sea Level Pressure  
Sea Level Pressure 30.08 in    
Wind  
Wind Speed 2 mph (NW)    
Max Wind Speed 8 mph    
Max Gust Speed -    
Visibility 10 miles    
Events      
Averages and records for this station are not official NWS values.
T = Trace of Precipitation, MM = Missing Value Source: NWS Daily Summary

Daily Weather History Graph

Daily Weather History Graph

Search for Another Location

Airport or City:

Trip Planner

Search our weather history database for the weather conditions in past years. The results will help you decide how hot, cold, wet, or windy it might be!

Date:

Astronomy

Feb. 27, 2014 Rise Set
Actual Time 6:30 AM CST 5:56 PM CST
Civil Twilight 6:06 AM CST 6:21 PM CST
Nautical Twilight 5:37 AM CST 6:50 PM CST
Astronomical Twilight 5:09 AM CST 7:18 PM CST
Moon 4:58 AM CST (2/27) 4:25 PM CST (2/27)
Length of Visible Light 12h 15m
Length of Day
11h 26m
Waning Crescent, 4% of the Moon is Illuminated
Feb 27
Waning Crescent
Mar 1
New
Mar 8
First Quarter
Mar 16
Full
Mar 23
Last Quarter

Hourly Weather History & Observations

Time (CST) Temp. Windchill Dew Point Humidity Pressure Visibility Wind Dir Wind Speed Gust Speed Precip Events Conditions
12:53 AM 30.0 °F - 19.0 °F 64% 30.12 in 10.0 mi Calm Calm - N/A   Clear
1:53 AM 28.9 °F - 19.0 °F 67% 30.11 in 10.0 mi Calm Calm - N/A   Clear
2:53 AM 27.0 °F - 19.9 °F 75% 30.10 in 10.0 mi Calm Calm - N/A   Clear
3:53 AM 26.1 °F - 19.9 °F 78% 30.09 in 10.0 mi Calm Calm - N/A   Clear
4:53 AM 26.1 °F - 21.0 °F 81% 30.11 in 10.0 mi Calm Calm - N/A   Clear
5:53 AM 25.0 °F - 21.0 °F 85% 30.12 in 10.0 mi Calm Calm - N/A   Clear
6:53 AM 24.1 °F - 19.9 °F 84% 30.13 in 10.0 mi Calm Calm - N/A   Clear
7:53 AM 28.9 °F 23.9 °F 21.9 °F 75% 30.14 in 10.0 mi NW 4.6 mph - N/A   Clear
8:53 AM 35.1 °F 30.1 °F 21.0 °F 57% 30.15 in 10.0 mi NW 5.8 mph - N/A   Clear
9:53 AM 39.0 °F 33.4 °F 19.0 °F 45% 30.15 in 10.0 mi NNW 8.1 mph - N/A   Clear
10:53 AM 42.1 °F 37.1 °F 15.1 °F 34% 30.15 in 10.0 mi NW 8.1 mph - N/A   Clear
11:53 AM 45.0 °F 43.5 °F 16.0 °F 31% 30.13 in 10.0 mi Variable 3.5 mph - N/A   Clear
12:53 PM 46.0 °F 43.9 °F 17.1 °F 31% 30.09 in 10.0 mi Variable 4.6 mph - N/A   Clear
1:53 PM 48.9 °F - 10.9 °F 22% 30.06 in 10.0 mi WNW 8.1 mph - N/A   Clear
2:53 PM 50.0 °F - 12.9 °F 23% 30.04 in 10.0 mi Variable 5.8 mph - N/A   Clear
3:53 PM 51.1 °F - 12.0 °F 21% 30.02 in 10.0 mi NNW 5.8 mph - N/A   Clear
4:53 PM 51.1 °F - 12.0 °F 21% 30.01 in 10.0 mi North 4.6 mph - N/A   Clear
5:53 PM 48.0 °F - 15.1 °F 27% 30.02 in 10.0 mi NNW 3.5 mph - N/A   Clear
6:53 PM 44.1 °F - 16.0 °F 32% 30.03 in 10.0 mi Calm Calm - N/A   Clear
7:53 PM 39.0 °F - 21.0 °F 49% 30.04 in 10.0 mi Calm Calm - N/A   Clear
8:53 PM 37.0 °F - 19.0 °F 48% 30.05 in 10.0 mi Calm Calm - N/A   Clear
9:53 PM 35.1 °F - 19.9 °F 54% 30.04 in 10.0 mi Calm Calm - N/A   Clear
10:53 PM 34.0 °F - 21.9 °F 61% 30.04 in 10.0 mi Calm Calm - N/A   Clear
11:53 PM 33.1 °F - 23.0 °F 66% 30.04 in 10.0 mi Calm Calm - N/A   Clear